Regional Weather Roundup
Issued by NWS

Home | Current Version | Previous Version | Graphics & Text | Print | Product List | Glossary On
Versions: 1 2 3 4 5 6 7 8 9 10 11 12 13 14 15 16 17 18 19 20 21 22 23 24 25 26 27 28 29 30 31 32 33 34 35 36 37 38 39 40 41 42 43 44 45 46 47 48 49 50
000
ASUS44 KMEG 280810
RWRTN
TENNESSEE HOURLY STATE WEATHER ROUNDUP
NATIONAL WEATHER SERVICE MEMPHIS TN
300 AM CDT SAT MAR 28 2015

TNZ002-004-019-021-049-052-054-088>092-280900-
WEST TENNESSEE

CITY           SKY/WX    TMP DP  RH WIND       PRES   REMARKS
MEMPHIS INTL   CLOUDY    39  20  46 E7        30.18F WCI  34
NWS MEMPHIS      N/A     36 N/A N/A MISG        N/A
JACKSON        MOCLDY    31  22  69 CALM      30.18F
DYERSBURG      PTCLDY    30  12  47 CALM      30.20S
UNION CITY     CLEAR     25  23  93 CALM      30.17S
PARIS          CLEAR     23  16  74 CALM      30.17S
LEXINGTON      CLEAR     28  18  64 CALM      30.15F
SAVANNAH       CLEAR     32  19  59 CALM      30.17S
$$

TNZ008-025-027-028-033-062-065-066-280900-
NORTH MIDDLE TENNESSEE

CITY           SKY/WX    TMP DP  RH WIND       PRES   REMARKS
NASHVILLE      CLOUDY    32  18  56 N7        30.16R WCI  26
CLARKSVILLE    CLEAR     28  21  75 N7        30.17F WCI  21
SMYRNA         PTCLDY    31  18  58 N9        30.17R WCI  23
COOKEVILLE     CLEAR     30  21  69 N5        30.08F WCI  25
CROSSVILLE     CLEAR     28  18  66 NW8       30.04S WCI  20
$$

TNZ061-075-076-078-094-096-097-280900-
SOUTH MIDDLE TENNESSEE

CITY           SKY/WX    TMP DP  RH WIND       PRES   REMARKS
FAYETTEVILLE   CLEAR     28  21  74 NW5       30.11F WCI  23
TULLAHOMA      CLEAR     27  19  74 NW6       30.11S WCI  20
WINCHESTER     CLEAR     30  23  74 NW5       30.11S WCI  25
MCMINNVILLE    CLOUDY    30  19  64 NW7       30.09F WCI  23
COLUMBIA       CLEAR     30  28  93 CALM      30.14S
SHELBYVILLE    CLEAR     28  21  74 NW3       30.14S
$$

TNZ017-018-042-046-047-280900-
NORTHEAST TENNESSEE

CITY           SKY/WX    TMP DP  RH WIND       PRES   REMARKS
TRI CITIES     CLOUDY    31  18  58 NW14G23   29.97F WCI  21
ELIZABETHTON   LGT SNOW  28  21  74 NW8       29.95S WCI  20
$$

TNZ012-013-036-069-073-074-280900-
CENTRAL EAST TENNESSEE

CITY           SKY/WX    TMP DP  RH WIND       PRES   REMARKS
KNOXVILLE      FLURRIES  34  21  59 N6        30.05S WCI  29
OAK RIDGE      CLOUDY    35  19  52 VRB3      30.07F
GATLINBURG     CLOUDY    30  19  64 NW9       30.04S WCI  22
MORRISTOWN     MOSUNNY   30  21  69 N13       30.02S WCI  20
$$

TNZ083-085-099-280900-
SOUTHEAST TENNESSEE

CITY           SKY/WX    TMP DP  RH WIND       PRES   REMARKS
CHATTANOOGA    MOCLDY    37  23  56 N10       30.08F WCI  30
$$

SKY/WX REPORTED AS FAIR MEANS FEW OR NO CLOUDS BELOW
12 THOUSAND FEET.




USA.gov is the U.S. government's official web portal to all federal, state and local government web resources and services.